EW4994 Weather Reports


time (UTC)temp
C
wind
direction
speed
KPH
gust
KPH
rain 1hr
cm
rain 24hr
cm
rain mn
cm
humidity
%
barometer
mb
20260906021549 28 346 0.0 0.0 0.00 0.00 0.00 73 1009.6
20260906014545 30 345 0.0 0.0 0.00 0.00 0.00 69 1009.3
20260906013101 30 38 0.0 0.0 0.00 0.00 0.00 67 1009.3
20260906011548 31 38 0.0 0.0 0.00 0.00 0.00 66 1009.2
20260906010043 31 38 0.0 0.0 0.00 0.00 0.00 65 1009.0
20260906004543 32 24 0.0 0.0 0.00 0.00 0.00 65 1009.0
20260906003044 32 23 0.0 0.0 0.00 0.00 0.00 64 1008.9
20260906001541 32 26 0.0 0.0 0.00 0.00 0.00 64 1009.1
20260906000046 33 145 0.0 0.0 0.00 0.00 0.00 64 1009.1
20260905234540 33 145 0.0 3.2 0.00 0.00 0.00 63 1009.2
20260905233043 33 145 0.0 0.0 0.00 0.00 0.00 59 1009.2
20260905231539 34 145 0.0 3.2 0.00 0.00 0.00 57 1009.0
20260905230041 35 145 0.0 4.8 0.00 0.00 0.00 54 1009.0
20260905224538 36 145 0.0 0.0 0.00 0.00 0.00 51 1009.0
20260905223042 36 145 1.6 6.4 0.00 0.00 0.00 48 1009.1
20260905221536 36 145 3.2 8.0 0.00 0.00 0.00 46 1009.1
20260905220033 36 147 0.0 8.0 0.00 0.00 0.00 47 1009.3
20260905214532 36 166 3.2 8.0 0.00 0.00 0.00 46 1009.4
20260905213031 36 167 4.8 8.0 0.00 0.00 0.00 46 1009.3
20260905211530 36 178 3.2 8.0 0.00 0.00 0.00 45 1009.4
20260905210045 36 161 0.0 0.0 0.00 0.00 0.00 48 1009.5
20260905204534 36 146 1.6 11.3 0.00 0.00 0.00 47 1009.7
20260905203027 37 144 3.2 11.3 0.00 0.00 0.00 45 1009.7
20260905201525 37 123 4.8 11.3 0.00 0.00 0.00 45 1010.1
20260905200024 37 190 3.2 12.9 0.00 0.00 0.00 43 1010.2
20260905194519 37 195 4.8 9.7 0.00 0.00 0.00 45 1010.5
20260905193017 36 205 8.0 11.3 0.00 0.00 0.00 45 1010.7
20260905191515 36 170 4.8 9.7 0.00 0.00 0.00 46 1011.0
20260905190018 36 127 6.4 14.5 0.00 0.00 0.00 47 1011.1
20260905184515 37 109 6.4 14.5 0.00 0.00 0.00 47 1011.2
20260905183007 36 83 1.6 9.7 0.00 0.00 0.00 49 1011.6
20260905181505 36 94 4.8 11.3 0.00 0.00 0.00 52 1011.6
20260905180004 36 148 3.2 12.9 0.00 0.00 0.00 51 1011.7
20260905174503 36 127 4.8 12.9 0.00 0.00 0.00 51 1011.8
20260905173100 36 126 6.4 14.5 0.00 0.00 0.00 50 1011.9
20260905171634 35 128 6.4 17.7 0.00 0.00 0.00 53 1012.1
20260905170105 35 135 6.4 12.9 0.00 0.00 0.00 56 1012.3
20260905164601 35 127 8.0 12.9 0.00 0.00 0.00 56 1012.4
20260905163057 35 131 4.8 12.9 0.00 0.00 0.00 57 1012.7
20260905161552 34 58 1.6 11.3 0.00 0.00 0.00 62 1012.7
20260905160049 33 135 3.2 8.0 0.00 0.00 0.00 65 1012.8
20260905154555 33 106 4.8 11.3 0.00 0.00 0.00 68 1012.8
20260905153039 32 110 4.8 9.7 0.00 0.00 0.00 69 1012.8
20260905151535 32 5 3.2 12.9 0.00 0.00 0.00 68 1012.8
20260905150040 31 321 4.8 12.9 0.00 0.00 0.00 69 1012.8
20260905144534 31 17 0.0 9.7 0.00 0.00 0.00 72 1012.8
20260905143026 30 162 0.0 8.0 0.00 0.00 0.00 77 1012.8
20260905141522 30 167 0.0 8.0 0.00 0.00 0.00 79 1012.8
20260905140019 29 167 0.0 4.8 0.00 0.00 0.00 81 1012.8
20260905134517 28 173 0.0 0.0 0.00 0.00 0.00 83 1012.7
20260905133012 27 148 0.0 0.0 0.00 0.00 0.00 86 1012.7
20260905131526 27 129 3.2 11.3 0.00 0.00 0.00 87 1012.7
20260905130008 26 153 3.2 9.7 0.00 0.00 0.00 88 1012.4
20260905124507 26 134 0.0 0.0 0.00 0.00 0.00 89 1012.5
20260905123007 26 133 0.0 11.3 0.00 0.00 0.00 90 1012.3
20260905121507 25 142 6.4 12.9 0.00 0.00 0.00 90 1012.2
20260905120104 25 118 8.0 12.9 0.00 0.00 0.00 91 1012.2
20260905114507 25 144 3.2 6.4 0.00 0.00 0.00 92 1012.1
20260905113059 25 144 0.0 0.0 0.00 0.00 0.00 92 1012.0
20260905111626 25 144 0.0 1.6 0.00 0.00 0.00 92 1011.9
20260905110106 25 144 0.0 0.0 0.00 0.00 0.00 92 1011.8
20260905104614 25 144 0.0 0.0 0.00 0.00 0.00 91 1011.6
20260905103054 25 144 0.0 0.0 0.00 0.00 0.00 92 1011.6
20260905101555 25 144 0.0 1.6 0.00 0.00 0.00 92 1011.6
20260905100051 25 144 1.6 11.3 0.00 0.00 0.00 93 1011.5
20260905094659 25 129 0.0 0.0 0.00 0.00 0.00 92 1011.7
20260905093055 24 129 0.0 0.0 0.00 0.00 0.00 92 1011.6
20260905091552 24 129 0.0 0.0 0.00 0.00 0.00 91 1011.5
20260905090046 25 129 0.0 0.0 0.00 0.00 0.00 91 1011.5
20260905084556 25 129 0.0 0.0 0.00 0.00 0.00 89 1011.5
20260905083141 26 129 0.0 0.0 0.00 0.00 0.00 90 1011.5
20260905081542 26 129 0.0 0.0 0.00 0.00 0.00 90 1011.5
20260905080038 26 129 0.0 0.0 0.00 0.00 0.00 90 1011.6
20260905074536 26 123 0.0 0.0 0.00 0.00 0.00 90 1011.7
20260905073035 26 123 0.0 0.0 0.00 0.00 0.00 89 1011.7
20260905071535 26 123 0.0 0.0 0.00 0.00 0.00 89 1011.7
20260905070032 26 123 0.0 0.0 0.00 0.00 0.00 88 1011.9
20260905064530 26 123 0.0 0.0 0.00 0.00 0.00 88 1011.8
20260905063030 26 123 0.0 0.0 0.00 0.00 0.00 88 1011.9
20260905061540 26 123 0.0 0.0 0.00 0.00 0.00 88 1011.9
20260905060047 26 123 0.0 0.0 0.00 0.00 0.00 88 1012.1
20260905054534 26 123 0.0 0.0 0.00 0.00 0.00 87 1012.0
20260905053022 27 123 0.0 0.0 0.00 0.00 0.00 86 1012.0
20260905051529 27 123 0.0 0.0 0.00 0.00 0.00 85 1012.1
20260905050017 27 123 0.0 0.0 0.00 0.00 0.00 84 1012.1
20260905044514 28 123 0.0 0.0 0.00 0.00 0.00 83 1012.1
20260905043018 28 123 0.0 0.0 0.00 0.00 0.00 83 1012.2
20260905041514 28 123 0.0 0.0 0.00 0.00 0.00 81 1012.3
20260905040017 28 123 0.0 4.8 0.00 0.00 0.00 81 1012.2
20260905034514 28 124 0.0 1.6 0.00 0.00 0.00 83 1012.2
20260905033012 28 124 0.0 0.0 0.00 0.00 0.00 82 1012.1
20260905031516 28 126 0.0 4.8 0.00 0.00 0.00 82 1012.4
20260905030011 28 126 0.0 0.0 0.00 0.00 0.00 82 1012.2
20260905024518 28 126 0.0 0.0 0.00 0.00 0.00 80 1012.2
20260905023017 29 126 0.0 0.0 0.00 0.00 0.00 79 1012.0